Weather History for KMLE - June, 2013

Change the Weather History Date:

Monday, June 10, 2013

  Actual Average (KOMA) Record (KOMA)
Temperature  
Mean Temperature 68 °F 71 °F  
Max Temperature 79 °F 82 °F 106 °F (1933)
Min Temperature 56 °F 59 °F 46 °F (1966)
Degree Days  
Heating Degree Days 0 1  
Month to date heating degree days 12  
Since 1 June heating degree days 12  
Since 1 July heating degree days 6162  
Cooling Degree Days 2 6  
Month to date cooling degree days 51  
Year to date cooling degree days 133  
Since 1 June cooling degree days 51  
Growing Degree Days 18 (Base 50)    
Moisture  
Dew Point 61 °F    
Average Humidity 80    
Maximum Humidity 96    
Minimum Humidity 57    
Precipitation  
Precipitation 0.00 in 0.15 in 2.30 in (1924)
Month to date precipitation 1.54  
Year to date precipitation 12.82  
Snow  
Snow 0.00 in 0.00 in - ()
Month to date snowfall 0.0  
Since 1 July snowfall 26.4  
Snow Depth -    
Sea Level Pressure  
Sea Level Pressure 29.85 in    
Wind  
Wind Speed 5 mph (SE)    
Max Wind Speed 16 mph    
Max Gust Speed 17 mph    
Visibility 8 miles    
Events      
T = Trace of Precipitation, MM = Missing Value Source: NWS Daily Summary

Daily Weather History Graph

Daily Weather History Graph

Search for Another Location

Airport or City:

Trip Planner

Search our weather history database for the weather conditions in past years. The results will help you decide how hot, cold, wet, or windy it might be!

Date:

Astronomy

Jun. 10, 2013 Rise Set
Actual Time 5:51 AM CDT 8:56 PM CDT
Civil Twilight 5:17 AM CDT 9:30 PM CDT
Nautical Twilight 4:34 AM CDT 10:13 PM CDT
Astronomical Twilight 3:44 AM CDT 11:04 PM CDT
Moon 7:41 AM CDT (6/10) 10:23 PM CDT (6/10)
Length of Visible Light 16h 12m
Length of Day
15h 05m
Waxing Crescent, 4% of the Moon is Illuminated
Jun 10
Waxing Crescent
Jun 16
First Quarter
Jun 23
Full
Jun 29
Last Quarter
Jul 8
New

Hourly Weather History & Observations

Time (CDT) Temp. Dew Point Humidity Pressure Visibility Wind Dir Wind Speed Gust Speed Precip Events Conditions
12:15 AM 62.1 °F 57.2 °F 84% 29.84 in 10.0 mi WNW 9.2 mph - N/A   Clear
12:35 AM 61.7 °F 57.4 °F 86% 29.85 in 10.0 mi NW 5.8 mph - N/A   Clear
12:55 AM 61.7 °F 57.0 °F 85% 29.84 in 10.0 mi NW 4.6 mph - N/A   Clear
1:15 AM 60.3 °F 56.7 °F 88% 29.84 in 10.0 mi NW 5.8 mph - N/A   Clear
1:35 AM 60.1 °F 57.0 °F 90% 29.84 in 10.0 mi WNW 6.9 mph - N/A   Clear
1:55 AM 60.4 °F 57.6 °F 90% 29.84 in 10.0 mi NW 8.1 mph - N/A   Clear
2:15 AM 60.8 °F 57.4 °F 88% 29.85 in 10.0 mi NW 5.8 mph - N/A   Clear
2:35 AM 60.4 °F 57.2 °F 89% 29.84 in 10.0 mi NW 6.9 mph - N/A   Clear
2:55 AM 60.1 °F 57.2 °F 90% 29.85 in 10.0 mi NW 4.6 mph - N/A   Clear
3:15 AM 59.0 °F 56.7 °F 92% 29.85 in 10.0 mi NW 3.5 mph - N/A   Clear
3:35 AM 58.3 °F 56.3 °F 93% 29.85 in 10.0 mi Calm Calm - N/A   Clear
3:55 AM 57.2 °F 55.9 °F 96% 29.85 in 10.0 mi Calm Calm - N/A   Mostly Cloudy
4:15 AM 57.4 °F 56.1 °F 96% 29.85 in 10.0 mi Calm Calm - N/A   Overcast
4:35 AM 56.7 °F 55.6 °F 96% 29.85 in 10.0 mi WNW 4.6 mph - N/A   Overcast
4:55 AM 58.3 °F 56.8 °F 95% 29.86 in 10.0 mi WNW 5.8 mph - N/A   Overcast
5:15 AM 59.0 °F 57.0 °F 93% 29.86 in 10.0 mi Calm Calm - N/A   Overcast
5:35 AM 59.0 °F 57.2 °F 94% 29.86 in 7.0 mi WNW 4.6 mph - N/A   Overcast
5:55 AM 58.6 °F 57.2 °F 95% 29.87 in 5.0 mi NW 3.5 mph - N/A   Overcast
6:15 AM 58.5 °F 57.2 °F 96% 29.86 in 4.0 mi NW 4.6 mph - N/A   Overcast
6:35 AM 58.3 °F 57.2 °F 96% 29.87 in 3.0 mi WNW 4.6 mph - N/A   Overcast
6:55 AM 58.5 °F 57.4 °F 96% 29.87 in 3.0 mi WNW 6.9 mph - N/A   Overcast
7:15 AM 58.5 °F 57.4 °F 96% 29.87 in 3.0 mi WNW 8.1 mph - N/A   Overcast
7:35 AM 58.6 °F 57.4 °F 96% 29.88 in 4.0 mi NNW 3.5 mph - N/A   Overcast
7:55 AM 58.3 °F 57.2 °F 96% 29.89 in 3.0 mi NW 4.6 mph - N/A   Overcast
8:15 AM 58.5 °F 57.2 °F 96% 29.89 in 3.0 mi NNW 5.8 mph - N/A   Overcast
8:35 AM 58.6 °F 57.4 °F 96% 29.89 in 2.5 mi Calm Calm - N/A   Overcast
8:55 AM 59.9 °F 58.3 °F 94% 29.89 in 4.0 mi East 4.6 mph - N/A   Overcast
9:15 AM 60.1 °F 58.3 °F 94% 29.89 in 4.0 mi Calm Calm - N/A   Overcast
9:35 AM 61.5 °F 59.4 °F 93% 29.90 in 5.0 mi Calm Calm - N/A   Overcast
9:55 AM 62.8 °F 59.5 °F 89% 29.90 in 7.0 mi Calm Calm - N/A   Overcast
10:15 AM 63.9 °F 60.1 °F 87% 29.90 in 7.0 mi South 4.6 mph - N/A   Overcast
10:35 AM 63.9 °F 59.9 °F 87% 29.90 in 7.0 mi South 4.6 mph - N/A   Overcast
10:55 AM 63.9 °F 59.7 °F 86% 29.90 in 7.0 mi SSE 4.6 mph - N/A   Overcast
11:15 AM 64.0 °F 60.3 °F 87% 29.90 in 7.0 mi Calm Calm - N/A   Overcast
11:35 AM 65.3 °F 61.0 °F 86% 29.91 in 5.0 mi East 4.6 mph - N/A   Overcast
11:55 AM 66.2 °F 61.7 °F 85% 29.90 in 7.0 mi SE 4.6 mph - N/A   Overcast
12:15 PM 67.3 °F 62.8 °F 85% 29.91 in 7.0 mi South 3.5 mph - N/A   Mostly Cloudy
12:35 PM 68.0 °F 62.4 °F 82% 29.90 in 7.0 mi SE 4.6 mph - N/A   Scattered Clouds
12:55 PM 68.4 °F 62.4 °F 81% 29.89 in 7.0 mi ESE 3.5 mph - N/A   Scattered Clouds
1:15 PM 69.4 °F 63.1 °F 80% 29.89 in 7.0 mi SE 5.8 mph - N/A   Clear
1:35 PM 70.2 °F 63.0 °F 78% 29.89 in 10.0 mi SE 3.5 mph - N/A   Clear
1:55 PM 71.6 °F 63.1 °F 75% 29.88 in 10.0 mi SE 4.6 mph - N/A   Clear
2:15 PM 73.0 °F 63.9 °F 73% 29.87 in 10.0 mi SE 6.9 mph - N/A   Clear
2:35 PM 73.8 °F 62.4 °F 68% 29.86 in 10.0 mi SE 5.8 mph - N/A   Clear
2:55 PM 74.5 °F 63.5 °F 68% 29.86 in 10.0 mi SE 8.1 mph - N/A   Clear
3:15 PM 75.2 °F 63.3 °F 66% 29.85 in 10.0 mi SSE 9.2 mph - N/A   Clear
3:35 PM 75.4 °F 62.6 °F 64% 29.85 in 10.0 mi SE 9.2 mph - N/A   Clear
3:55 PM 76.6 °F 63.3 °F 63% 29.84 in 10.0 mi SE 10.4 mph - N/A   Clear
4:15 PM 76.8 °F 63.0 °F 62% 29.83 in 10.0 mi SE 8.1 mph - N/A   Clear
4:35 PM 77.4 °F 64.4 °F 64% 29.83 in 10.0 mi SE 9.2 mph - N/A   Clear
4:55 PM 77.9 °F 63.0 °F 60% 29.82 in 10.0 mi ESE 6.9 mph - N/A   Clear
5:15 PM 78.3 °F 62.6 °F 58% 29.82 in 10.0 mi SE 8.1 mph - N/A   Clear
5:35 PM 79.0 °F 62.6 °F 57% 29.81 in 10.0 mi SE 9.2 mph - N/A   Clear
5:55 PM 79.0 °F 64.8 °F 62% 29.79 in 10.0 mi ESE 9.2 mph - N/A   Clear
6:15 PM 77.9 °F 64.0 °F 62% 29.79 in 10.0 mi ESE 9.2 mph 16.1 mph N/A   Clear
6:35 PM 78.4 °F 63.9 °F 61% 29.78 in 10.0 mi SE 16.1 mph - N/A   Clear
6:55 PM 78.3 °F 63.7 °F 61% 29.78 in 10.0 mi ESE 13.8 mph 17.3 mph N/A   Clear
7:15 PM 78.6 °F 62.4 °F 57% 29.79 in 10.0 mi SE 11.5 mph 17.3 mph N/A   Clear
7:35 PM 78.3 °F 63.0 °F 59% 29.79 in 10.0 mi SE 8.1 mph - N/A   Clear
7:55 PM 77.5 °F 64.0 °F 63% 29.81 in 10.0 mi SE 4.6 mph - N/A   Clear
8:15 PM 76.3 °F 63.9 °F 65% 29.81 in 10.0 mi SE 5.8 mph - N/A   Clear
8:35 PM 75.9 °F 63.5 °F 65% 29.81 in 10.0 mi ESE 5.8 mph - N/A   Clear
8:55 PM 74.3 °F 63.1 °F 68% 29.81 in 10.0 mi SE 4.6 mph - N/A   Clear
9:15 PM 73.6 °F 63.0 °F 69% 29.81 in 10.0 mi Calm Calm - N/A   Clear
9:35 PM 73.4 °F 63.5 °F 71% 29.81 in 10.0 mi Calm Calm - N/A   Clear
9:55 PM 73.6 °F 63.7 °F 71% 29.81 in 10.0 mi Calm Calm - N/A   Clear
10:15 PM 72.9 °F 63.7 °F 73% 29.82 in 10.0 mi Calm Calm - N/A   Clear
10:35 PM 72.7 °F 64.4 °F 75% 29.83 in 10.0 mi Calm Calm - N/A   Clear
10:55 PM 72.3 °F 64.2 °F 76% 29.83 in 10.0 mi SE 3.5 mph - N/A   Clear
11:15 PM 71.6 °F 64.4 °F 78% 29.83 in 10.0 mi ESE 3.5 mph - N/A   Clear
11:35 PM 71.6 °F 64.4 °F 78% 29.83 in 10.0 mi ESE 3.5 mph - N/A   Clear
11:55 PM 71.8 °F 64.4 °F 77% 29.84 in 10.0 mi Calm Calm - N/A   Clear